| time (UTC) | temp F | wind direction | speed MPH | gust MPH | rain 1hr in | rain 24hr in | rain mn in | humidity % | barometer mb |
| 20260505025003 | 60 | 191 | 0.0 | 7.0 | 0.00 | 0.00 | 0.00 | 53 | 1010.1 |
| 20260505024510 | 61 | 170 | 0.0 | 7.0 | 0.00 | 0.00 | 0.00 | 53 | 1010.0 |
| 20260505024002 | 61 | 224 | 0.0 | 6.0 | 0.00 | 0.00 | 0.00 | 53 | 1010.0 |
| 20260505023505 | 61 | 141 | 1.0 | 6.0 | 0.00 | 0.00 | 0.00 | 52 | 1010.0 |
| 20260505023012 | 61 | 219 | 0.0 | 6.0 | 0.00 | 0.00 | 0.00 | 53 | 1010.2 |
| 20260505022507 | 61 | 117 | 0.0 | 6.0 | 0.00 | 0.00 | 0.00 | 52 | 1010.1 |
| 20260505022005 | 61 | 198 | 1.0 | 6.0 | 0.00 | 0.00 | 0.00 | 52 | 1010.2 |
| 20260505021520 | 62 | 187 | 0.0 | 10.0 | 0.00 | 0.00 | 0.00 | 51 | 1010.2 |
| 20260505021002 | 62 | 200 | 3.0 | 10.0 | 0.00 | 0.00 | 0.00 | 51 | 1010.2 |
| 20260505020502 | 62 | 184 | 0.0 | 7.0 | 0.00 | 0.00 | 0.00 | 51 | 1010.2 |
| 20260505020005 | 62 | 217 | 1.0 | 7.0 | 0.00 | 0.00 | 0.00 | 51 | 1010.2 |
| 20260505015504 | 62 | 184 | 1.0 | 6.0 | 0.00 | 0.00 | 0.00 | 51 | 1010.1 |
| 20260505015004 | 62 | 207 | 0.0 | 5.0 | 0.00 | 0.00 | 0.00 | 50 | 1010.0 |
| 20260505014513 | 63 | 116 | 0.0 | 6.0 | 0.00 | 0.00 | 0.00 | 50 | 1010.0 |
| 20260505014003 | 63 | 135 | 0.0 | 8.0 | 0.00 | 0.00 | 0.00 | 49 | 1010.0 |
| 20260505013504 | 63 | 160 | 1.0 | 8.0 | 0.00 | 0.00 | 0.00 | 49 | 1009.9 |
| 20260505013013 | 63 | 217 | 0.0 | 8.0 | 0.00 | 0.00 | 0.00 | 49 | 1009.8 |
| 20260505012506 | 63 | 191 | 2.0 | 9.0 | 0.00 | 0.00 | 0.00 | 48 | 1009.7 |
| 20260505012002 | 63 | 193 | 1.0 | 9.0 | 0.00 | 0.00 | 0.00 | 48 | 1009.6 |
| 20260505011514 | 64 | 176 | 1.0 | 9.0 | 0.00 | 0.00 | 0.00 | 47 | 1009.5 |
| 20260505011007 | 64 | 187 | 1.0 | 6.0 | 0.00 | 0.00 | 0.00 | 47 | 1009.4 |
| 20260505010507 | 64 | 171 | 0.0 | 8.0 | 0.00 | 0.00 | 0.00 | 47 | 1009.3 |
| 20260505010022 | 64 | 210 | 2.0 | 8.0 | 0.00 | 0.00 | 0.00 | 46 | 1009.2 |
| 20260505005508 | 65 | 206 | 0.0 | 11.0 | 0.00 | 0.00 | 0.00 | 46 | 1009.1 |
| 20260505005003 | 65 | 196 | 2.0 | 11.0 | 0.00 | 0.00 | 0.00 | 45 | 1009.0 |
| 20260505004507 | 65 | 198 | 2.0 | 11.0 | 0.00 | 0.00 | 0.00 | 45 | 1008.9 |
| 20260505004004 | 66 | 143 | 2.0 | 11.0 | 0.00 | 0.00 | 0.00 | 44 | 1008.8 |
| 20260505003505 | 66 | 188 | 3.0 | 11.0 | 0.00 | 0.00 | 0.00 | 44 | 1008.7 |
| 20260505003010 | 66 | 169 | 1.0 | 10.0 | 0.00 | 0.00 | 0.00 | 43 | 1008.5 |
| 20260505002505 | 66 | 174 | 1.0 | 10.0 | 0.00 | 0.00 | 0.00 | 42 | 1008.3 |
| 20260505002005 | 67 | 202 | 0.0 | 7.0 | 0.00 | 0.00 | 0.00 | 41 | 1008.1 |
| 20260505001512 | 67 | 161 | 0.0 | 5.0 | 0.00 | 0.00 | 0.00 | 39 | 1007.9 |
| 20260505001008 | 67 | 175 | 0.0 | 5.0 | 0.00 | 0.00 | 0.00 | 39 | 1007.7 |
| 20260505000509 | 67 | 124 | 0.0 | 6.0 | 0.00 | 0.00 | 0.00 | 38 | 1007.7 |
| 20260505000026 | 68 | 194 | 1.0 | 6.0 | 0.00 | 0.00 | 0.00 | 38 | 1007.6 |
| 20260504235508 | 68 | 172 | 0.0 | 3.0 | 0.00 | 0.00 | 0.00 | 38 | 1007.5 |
| 20260504235007 | 68 | 153 | 0.0 | 5.0 | 0.00 | 0.00 | 0.00 | 38 | 1007.4 |
| 20260504234522 | 68 | 179 | 0.0 | 5.0 | 0.00 | 0.00 | 0.00 | 37 | 1007.3 |
| 20260504234011 | 68 | 173 | 0.0 | 4.0 | 0.00 | 0.00 | 0.00 | 38 | 1007.1 |
| 20260504233503 | 69 | 209 | 0.0 | 4.0 | 0.00 | 0.00 | 0.00 | 37 | 1007.0 |
| 20260504233007 | 69 | 205 | 0.0 | 4.0 | 0.00 | 0.00 | 0.00 | 37 | 1007.0 |
| 20260504232507 | 69 | 195 | 0.0 | 4.0 | 0.00 | 0.00 | 0.00 | 36 | 1006.9 |
| 20260504232005 | 69 | 193 | 0.0 | 7.0 | 0.00 | 0.00 | 0.00 | 36 | 1006.8 |
| 20260504231512 | 70 | 174 | 1.0 | 13.0 | 0.00 | 0.00 | 0.00 | 36 | 1006.8 |
| 20260504231008 | 70 | 144 | 0.0 | 13.0 | 0.00 | 0.00 | 0.00 | 36 | 1006.7 |
| 20260504230509 | 70 | 191 | 0.0 | 8.0 | 0.00 | 0.00 | 0.00 | 35 | 1006.6 |
| 20260504230016 | 70 | 145 | 0.0 | 5.0 | 0.00 | 0.00 | 0.00 | 36 | 1006.6 |
| 20260504225507 | 70 | 191 | 0.0 | 6.0 | 0.00 | 0.00 | 0.00 | 34 | 1006.6 |
| 20260504225007 | 71 | 200 | 0.0 | 6.0 | 0.00 | 0.00 | 0.00 | 35 | 1006.5 |
| 20260504224522 | 71 | 174 | 0.0 | 8.0 | 0.00 | 0.00 | 0.00 | 34 | 1006.5 |
| 20260504224005 | 71 | 181 | 0.0 | 8.0 | 0.00 | 0.00 | 0.00 | 34 | 1006.4 |
| 20260504223507 | 71 | 165 | 2.0 | 6.0 | 0.00 | 0.00 | 0.00 | 34 | 1006.5 |
| 20260504223029 | 71 | 276 | 0.0 | 5.0 | 0.00 | 0.00 | 0.00 | 35 | 1006.5 |
| 20260504222510 | 71 | 248 | 0.0 | 5.0 | 0.00 | 0.00 | 0.00 | 34 | 1006.4 |
| 20260504222010 | 71 | 203 | 0.0 | 8.0 | 0.00 | 0.00 | 0.00 | 34 | 1006.4 |
| 20260504221507 | 71 | 267 | 1.0 | 8.0 | 0.00 | 0.00 | 0.00 | 33 | 1006.5 |
| 20260504221005 | 71 | 163 | 1.0 | 9.0 | 0.00 | 0.00 | 0.00 | 34 | 1006.4 |
| 20260504220504 | 71 | 256 | 0.0 | 11.0 | 0.00 | 0.00 | 0.00 | 33 | 1006.5 |
| 20260504220015 | 71 | 189 | 2.0 | 11.0 | 0.00 | 0.00 | 0.00 | 33 | 1006.5 |
| 20260504215503 | 71 | 122 | 0.0 | 11.0 | 0.00 | 0.00 | 0.00 | 33 | 1006.5 |
| 20260504215008 | 71 | 158 | 1.0 | 11.0 | 0.00 | 0.00 | 0.00 | 32 | 1006.6 |
| 20260504214522 | 71 | 245 | 1.0 | 8.0 | 0.00 | 0.00 | 0.00 | 33 | 1006.5 |
| 20260504214009 | 72 | 168 | 1.0 | 13.0 | 0.00 | 0.00 | 0.00 | 32 | 1006.5 |
| 20260504213508 | 72 | 320 | 1.0 | 13.0 | 0.00 | 0.00 | 0.00 | 32 | 1006.5 |
| 20260504213028 | 72 | 212 | 1.0 | 10.0 | 0.00 | 0.00 | 0.00 | 32 | 1006.5 |
| 20260504212507 | 72 | 238 | 1.0 | 12.0 | 0.00 | 0.00 | 0.00 | 31 | 1006.5 |
| 20260504212006 | 73 | 213 | 2.0 | 12.0 | 0.00 | 0.00 | 0.00 | 31 | 1006.7 |
| 20260504211535 | 73 | 119 | 1.0 | 10.0 | 0.00 | 0.00 | 0.00 | 32 | 1006.6 |
| 20260504211007 | 73 | 214 | 1.0 | 11.0 | 0.00 | 0.00 | 0.00 | 31 | 1006.5 |
| 20260504210511 | 73 | 147 | 3.0 | 11.0 | 0.00 | 0.00 | 0.00 | 31 | 1006.7 |
| 20260504210012 | 73 | 203 | 1.0 | 9.0 | 0.00 | 0.00 | 0.00 | 31 | 1006.7 |
| 20260504205504 | 74 | 219 | 1.0 | 6.0 | 0.00 | 0.00 | 0.00 | 29 | 1006.5 |
| 20260504205005 | 74 | 266 | 0.0 | 8.0 | 0.00 | 0.00 | 0.00 | 30 | 1006.6 |
| 20260504204518 | 75 | 250 | 1.0 | 9.0 | 0.00 | 0.00 | 0.00 | 31 | 1006.6 |
| 20260504204002 | 75 | 360 | 1.0 | 12.0 | 0.00 | 0.00 | 0.00 | 30 | 1006.5 |
| 20260504203502 | 75 | 198 | 3.0 | 12.0 | 0.00 | 0.00 | 0.00 | 29 | 1006.7 |
| 20260504203003 | 76 | 252 | 2.0 | 12.0 | 0.00 | 0.00 | 0.00 | 30 | 1006.6 |
| 20260504202503 | 76 | 217 | 1.0 | 11.0 | 0.00 | 0.00 | 0.00 | 29 | 1006.6 |
| 20260504202003 | 76 | 266 | 3.0 | 11.0 | 0.00 | 0.00 | 0.00 | 29 | 1006.6 |
| 20260504201503 | 77 | 20 | 3.0 | 9.0 | 0.00 | 0.00 | 0.00 | 28 | 1006.5 |
| 20260504201004 | 76 | 62 | 1.0 | 8.0 | 0.00 | 0.00 | 0.00 | 29 | 1006.5 |
| 20260504200502 | 75 | 206 | 1.0 | 6.0 | 0.00 | 0.00 | 0.00 | 30 | 1006.5 |
| 20260504200007 | 75 | 292 | 0.0 | 7.0 | 0.00 | 0.00 | 0.00 | 33 | 1006.5 |
| 20260504195503 | 74 | 210 | 0.0 | 7.0 | 0.00 | 0.00 | 0.00 | 32 | 1006.6 |
| 20260504195003 | 73 | 245 | 1.0 | 7.0 | 0.00 | 0.00 | 0.00 | 30 | 1006.7 |
| 20260504194511 | 73 | 206 | 1.0 | 8.0 | 0.00 | 0.00 | 0.00 | 30 | 1006.7 |
| 20260504194004 | 74 | 169 | 2.0 | 18.0 | 0.00 | 0.00 | 0.00 | 30 | 1006.8 |
| 20260504193506 | 74 | 250 | 2.0 | 18.0 | 0.00 | 0.00 | 0.00 | 29 | 1006.8 |
| 20260504193021 | 75 | 262 | 2.0 | 13.0 | 0.00 | 0.00 | 0.00 | 28 | 1006.7 |
| 20260504192505 | 76 | 266 | 2.0 | 13.0 | 0.00 | 0.00 | 0.00 | 27 | 1006.8 |
| 20260504192003 | 77 | 243 | 1.0 | 8.0 | 0.00 | 0.00 | 0.00 | 31 | 1006.8 |
| 20260504191505 | 76 | 203 | 1.0 | 9.0 | 0.00 | 0.00 | 0.00 | 28 | 1006.8 |
| 20260504191003 | 76 | 237 | 0.0 | 9.0 | 0.00 | 0.00 | 0.00 | 28 | 1006.7 |
| 20260504190503 | 76 | 125 | 1.0 | 9.0 | 0.00 | 0.00 | 0.00 | 29 | 1006.9 |
| 20260504190007 | 75 | 115 | 1.0 | 11.0 | 0.00 | 0.00 | 0.00 | 30 | 1006.8 |
| 20260504185504 | 76 | 227 | 1.0 | 11.0 | 0.00 | 0.00 | 0.00 | 28 | 1006.9 |
| 20260504185004 | 77 | 198 | 3.0 | 9.0 | 0.00 | 0.00 | 0.00 | 26 | 1007.1 |
| 20260504184510 | 77 | 195 | 1.0 | 13.0 | 0.00 | 0.00 | 0.00 | 27 | 1007.0 |
| 20260504184004 | 77 | 236 | 2.0 | 13.0 | 0.00 | 0.00 | 0.00 | 27 | 1007.1 |
| 20260504183504 | 77 | 272 | 2.0 | 13.0 | 0.00 | 0.00 | 0.00 | 27 | 1007.1 |
| 20260504183015 | 77 | 205 | 3.0 | 11.0 | 0.00 | 0.00 | 0.00 | 27 | 1007.1 |
| 20260504182503 | 77 | 104 | 1.0 | 10.0 | 0.00 | 0.00 | 0.00 | 27 | 1007.2 |
| 20260504182008 | 77 | 195 | 3.0 | 12.0 | 0.00 | 0.00 | 0.00 | 27 | 1007.3 |
| 20260504181519 | 76 | 207 | 1.0 | 12.0 | 0.00 | 0.00 | 0.00 | 28 | 1007.2 |
| 20260504181009 | 76 | 183 | 0.0 | 11.0 | 0.00 | 0.00 | 0.00 | 29 | 1007.2 |
| 20260504180504 | 76 | 193 | 5.0 | 11.0 | 0.00 | 0.00 | 0.00 | 27 | 1007.2 |
| 20260504180004 | 75 | 101 | 2.0 | 15.0 | 0.00 | 0.00 | 0.00 | 28 | 1007.3 |
| 20260504175503 | 75 | 200 | 3.0 | 15.0 | 0.00 | 0.00 | 0.00 | 28 | 1007.2 |
| 20260504175004 | 75 | 188 | 3.0 | 13.0 | 0.00 | 0.00 | 0.00 | 29 | 1007.3 |
| 20260504174508 | 74 | 230 | 1.0 | 13.0 | 0.00 | 0.00 | 0.00 | 29 | 1007.3 |
| 20260504174005 | 74 | 253 | 2.0 | 12.0 | 0.00 | 0.00 | 0.00 | 31 | 1007.3 |
| 20260504173505 | 74 | 129 | 2.0 | 12.0 | 0.00 | 0.00 | 0.00 | 29 | 1007.4 |
| 20260504173013 | 74 | 238 | 3.0 | 11.0 | 0.00 | 0.00 | 0.00 | 28 | 1007.5 |
| 20260504172503 | 74 | 184 | 2.0 | 14.0 | 0.00 | 0.00 | 0.00 | 29 | 1007.6 |
| 20260504172008 | 74 | 181 | 4.0 | 14.0 | 0.00 | 0.00 | 0.00 | 30 | 1007.5 |
| 20260504171514 | 74 | 166 | 3.0 | 10.0 | 0.00 | 0.00 | 0.00 | 29 | 1007.5 |
| 20260504171007 | 74 | 191 | 1.0 | 13.0 | 0.00 | 0.00 | 0.00 | 30 | 1007.5 |
| 20260504170508 | 73 | 278 | 3.0 | 13.0 | 0.00 | 0.00 | 0.00 | 30 | 1007.8 |
| 20260504151004 | 70 | 182 | 0.0 | 7.0 | 0.00 | 0.00 | 0.00 | 36 | 1008.8 |
| 20260504150506 | 70 | 260 | 1.0 | 11.0 | 0.00 | 0.00 | 0.00 | 36 | 1009.0 |
| 20260504141006 | 65 | 176 | 1.0 | 12.0 | 0.00 | 0.00 | 0.00 | 40 | 1009.4 |
| 20260504140505 | 65 | 249 | 3.0 | 12.0 | 0.00 | 0.00 | 0.00 | 40 | 1009.4 |
| 20260504130508 | 57 | 151 | 3.0 | 7.0 | 0.00 | 0.00 | 0.00 | 49 | 1010.2 |
| 20260504110502 | 43 | 160 | 0.0 | 0.0 | 0.00 | 0.00 | 0.00 | 77 | 1010.4 |
| 20260504100503 | 43 | 159 | 0.0 | 0.0 | 0.00 | 0.00 | 0.00 | 75 | 1010.7 |
| 20260504082003 | 44 | 142 | 0.0 | 0.0 | 0.00 | 0.00 | 0.00 | 69 | 1010.5 |
| 20260504081506 | 44 | 142 | 0.0 | 0.0 | 0.00 | 0.00 | 0.00 | 69 | 1010.4 |
| 20260504081003 | 44 | 142 | 0.0 | 0.0 | 0.00 | 0.00 | 0.00 | 68 | 1010.4 |
| 20260504080504 | 44 | 142 | 0.0 | 0.0 | 0.00 | 0.00 | 0.00 | 67 | 1010.4 |
| 20260504050506 | 36 | 360 | 0.0 | 0.0 | 0.00 | 0.00 | 0.00 | 88 | 1010.6 |
| 20260504050021 | 36 | 360 | 0.0 | 0.0 | 0.00 | 0.00 | 0.00 | 88 | 1010.6 |
| 20260504045504 | 36 | 360 | 0.0 | 0.0 | 0.00 | 0.00 | 0.00 | 88 | 1010.7 |
| 20260504045004 | 35 | 360 | 0.0 | 0.0 | 0.00 | 0.00 | 0.00 | 87 | 1010.7 |
| 20260504044515 | 35 | 360 | 0.0 | 0.0 | 0.00 | 0.00 | 0.00 | 86 | 1010.8 |
| 20260504044004 | 35 | 360 | 0.0 | 0.0 | 0.00 | 0.00 | 0.00 | 85 | 1010.7 |
| 20260504043504 | 35 | 360 | 0.0 | 0.0 | 0.00 | 0.00 | 0.00 | 85 | 1010.7 |
| 20260504043016 | 36 | 360 | 0.0 | 0.0 | 0.00 | 0.00 | 0.00 | 84 | 1010.7 |
| 20260504042506 | 36 | 360 | 0.0 | 0.0 | 0.00 | 0.00 | 0.00 | 84 | 1010.7 |
| 20260504042006 | 36 | 360 | 0.0 | 0.0 | 0.00 | 0.00 | 0.00 | 83 | 1010.7 |
| 20260504041529 | 36 | 360 | 0.0 | 0.0 | 0.00 | 0.00 | 0.00 | 83 | 1010.7 |
| 20260504041006 | 36 | 360 | 0.0 | 0.0 | 0.00 | 0.00 | 0.00 | 83 | 1010.6 |
| 20260504040508 | 36 | 360 | 0.0 | 0.0 | 0.00 | 0.00 | 0.00 | 83 | 1010.6 |
| 20260504040019 | 36 | 360 | 0.0 | 0.0 | 0.00 | 0.00 | 0.00 | 83 | 1010.6 |
| 20260504035508 | 36 | 360 | 0.0 | 0.0 | 0.00 | 0.00 | 0.00 | 82 | 1010.6 |
| 20260504035008 | 36 | 360 | 0.0 | 0.0 | 0.00 | 0.00 | 0.00 | 82 | 1010.5 |
| 20260504034519 | 37 | 360 | 0.0 | 0.0 | 0.00 | 0.00 | 0.00 | 82 | 1010.4 |
| 20260504034005 | 37 | 360 | 0.0 | 0.0 | 0.00 | 0.00 | 0.00 | 82 | 1010.4 |
| 20260504033506 | 37 | 360 | 0.0 | 0.0 | 0.00 | 0.00 | 0.00 | 81 | 1010.4 |
| 20260504033020 | 37 | 360 | 0.0 | 0.0 | 0.00 | 0.00 | 0.00 | 80 | 1010.3 |
| 20260504032504 | 37 | 360 | 0.0 | 0.0 | 0.00 | 0.00 | 0.00 | 80 | 1010.3 |
| 20260504032005 | 37 | 360 | 0.0 | 0.0 | 0.00 | 0.00 | 0.00 | 80 | 1010.3 |
| 20260504031520 | 38 | 360 | 0.0 | 0.0 | 0.00 | 0.00 | 0.00 | 79 | 1010.3 |
| 20260504031006 | 38 | 360 | 0.0 | 0.0 | 0.00 | 0.00 | 0.00 | 79 | 1010.3 |
| 20260504030507 | 38 | 360 | 0.0 | 0.0 | 0.00 | 0.00 | 0.00 | 79 | 1010.4 |
| 20260504030021 | 38 | 360 | 0.0 | 0.0 | 0.00 | 0.00 | 0.00 | 78 | 1010.3 |
| 20260504025507 | 38 | 360 | 0.0 | 0.0 | 0.00 | 0.00 | 0.00 | 78 | 1010.4 |